Theta_e
323 328 330 329 335 334 335 334 336 334 329 332 333 335 333 331 333 333 332 328 327 328 328 327 327 324 322 319 317 316 316 315 313 311 312 311 310 310 311 310 310 310 310 310
325 329 332 332 333 335 335 335 335 333 331 333 334 334 332 332 332 331 328 325 328 328 327 327 324 323 321 320 316 316 316 315 312 310 312 313 312 311 310 310 310 310 311 311
327 330 333 333 333 334 331 333 333 334 334 332 331 331 333 332 330 328 328 328 328 327 326 324 323 321 321 320 317 317 316 314 313 312 313 313 312 311 311 310 311 310 311 311
330 330 332 333 334 333 335 333 334 334 334 336 332 334 334 333 328 325 324 323 325 327 326 324 323 322 321 319 317 316 315 314 312 312 313 312 312 311 312 312 312 311 311 311
331 330 331 331 333 330 331 332 330 333 333 333 333 328 331 329 331 329 325 325 324 328 327 325 323 322 319 317 316 316 314 314 311 312 313 312 312 312 312 312 311 311 310 311
330 331 331 331 331 330 329 329 327 326 328 330 329 328 331 331 331 330 328 327 325 327 326 325 323 320 318 317 317 315 314 312 312 312 312 312 313 312 311 310 310 311 311 310
332 333 333 331 329 328 322 321 324 325 332 337 331 328 328 328 328 328 328 327 326 325 325 323 321 317 317 317 315 314 313 312 311 312 313 313 314 314 312 311 311 312 312 310
331 331 333 330 330 332 327 322 323 329 331 332 328 331 326 326 327 328 329 327 326 324 324 322 320 318 318 316 315 314 313 312 312 312 313 313 314 315 313 312 311 312 312 312
331 332 330 329 327 326 327 328 324 327 326 329 331 331 328 328 326 326 325 325 324 324 323 321 319 319 318 316 315 314 313 312 312 313 313 314 313 313 314 313 312 312 312 310
330 331 329 329 326 325 326 326 326 323 328 332 330 329 329 324 327 326 326 326 325 324 323 321 319 319 317 316 314 313 314 312 312 313 314 314 313 313 313 312 312 312 311 310
324 325 329 327 326 325 324 324 326 324 326 329 333 329 322 319 320 324 325 326 325 324 323 320 318 317 316 314 313 314 312 312 313 314 314 313 312 312 312 312 312 311 309 311
324 325 329 328 326 325 324 324 324 326 329 326 324 325 322 317 317 319 323 323 324 323 322 320 317 316 315 314 313 313 312 312 313 313 314 313 312 312 312 312 312 312 311 311
328 327 331 331 325 324 323 319 323 321 319 325 324 326 317 318 318 318 318 318 319 319 318 317 317 316 314 314 314 313 312 313 313 314 314 314 313 312 312 312 313 311 312 311
327 323 327 329 327 324 322 318 318 319 321 322 323 322 317 316 317 317 317 318 319 318 317 317 316 316 315 314 314 313 312 313 313 314 314 314 312 313 313 313 312 314 312 312
323 324 323 323 324 322 319 319 318 318 318 318 319 320 318 317 316 318 318 318 318 317 316 316 315 315 314 314 314 313 312 312 312 313 314 313 313 312 312 312 312 314 313 312
325 325 326 329 323 321 321 322 323 324 321 321 321 321 319 320 319 319 319 319 318 317 317 317 317 315 315 314 314 313 313 312 312 313 314 313 311 311 311 312 312 314 313 312
328 328 330 331 329 325 323 323 324 324 323 322 323 322 321 321 320 320 320 319 318 318 318 317 317 317 316 315 314 313 313 312 312 312 314 314 311 313 311 312 312 312 313 312
329 328 327 329 326 324 327 323 323 324 324 323 323 323 322 321 320 320 318 317 317 318 319 319 316 316 315 315 315 314 313 312 312 313 314 313 312 312 313 313 314 313 312 313
328 326 330 329 324 325 326 324 322 324 322 322 321 318 319 318 317 316 316 317 315 316 316 317 317 318 317 315 315 314 313 312 312 312 313 314 313 312 312 313 314 314 313 310
327 326 329 330 330 331 325 323 320 323 323 318 314 316 316 313 313 314 311 312 312 312 310 312 314 314 316 316 317 316 314 313 312 312 312 314 316 314 311 313 312 314 314 311
325 326 328 327 331 327 320 319 319 319 318 313 315 316 312 313 312 311 311 313 312 311 310 309 310 312 314 316 317 317 314 315 314 312 312 314 315 314 313 313 313 313 314 315
326 326 325 324 325 329 317 316 318 316 312 311 312 312 311 311 310 311 311 311 312 312 312 312 312 312 310 315 316 316 314 315 315 314 313 314 314 315 315 313 314 312 312 313
325 323 323 322 320 318 314 313 312 312 311 311 311 311 311 311 311 311 312 310 309 310 311 311 312 311 310 313 316 317 315 314 315 315 315 314 314 314 315 315 314 314 312 312
323 322 317 319 319 317 314 313 313 312 311 311 312 311 313 312 312 311 311 309 310 309 309 309 310 310 309 311 313 315 316 314 315 315 315 314 314 314 314 314 315 314 312 313
321 322 319 319 318 317 315 314 313 312 313 312 312 312 310 310 310 311 311 309 309 309 309 309 310 310 309 310 308 309 312 312 315 313 315 315 314 314 314 314 315 315 314 313
320 319 317 316 317 315 315 314 314 313 312 312 312 312 311 310 311 311 310 310 310 308 308 309 308 309 309 309 309 309 307 309 310 310 310 312 314 314 314 314 315 315 315 315
Wind_Speed
6 7 4 7 7 6 6 4 6 7 2 10 7 7 5 4 10 20 14 23 20 19 22 18 14 10 4 7 15 16 16 16 19 16 11 11 11 11 9 11 12 12 14 16
5 4 1 9 10 8 5 3 1 11 14 12 8 6 6 14 12 25 28 22 25 19 19 19 14 8 5 7 11 12 12 13 17 14 11 12 13 12 9 7 11 11 14 17
5 2 6 6 4 6 5 3 2 4 13 19 7 9 4 10 13 12 21 24 22 20 20 18 14 9 6 7 8 10 10 12 17 14 13 14 11 11 9 8 10 10 13 15
1 2 4 4 4 2 3 4 5 18 7 4 2 4 5 5 6 9 18 15 15 21 20 18 12 11 6 6 8 9 13 15 21 15 15 15 15 15 11 12 10 10 11 13
3 3 4 2 4 4 6 3 6 18 11 5 7 5 3 4 3 9 16 13 8 20 13 18 12 8 8 7 7 14 15 17 17 13 13 15 15 13 9 10 10 9 9 12
4 1 3 2 5 3 3 3 13 6 5 5 6 2 3 2 6 4 14 16 10 17 13 19 10 11 9 8 11 9 10 15 8 10 12 15 14 15 12 11 7 7 10 12
3 4 2 4 7 6 11 6 3 4 5 2 7 4 4 5 3 7 12 15 15 15 24 14 13 12 8 10 6 7 9 13 8 9 11 14 15 15 14 8 6 9 12 11
3 7 6 6 1 2 4 3 5 1 4 2 6 3 5 2 7 9 4 9 12 18 13 10 13 11 9 6 7 7 13 10 5 6 10 12 15 14 11 8 7 12 13 12
3 5 5 13 18 5 6 4 1 7 4 4 2 3 7 5 4 5 8 13 19 12 13 13 13 10 8 8 10 12 11 4 2 5 10 12 14 12 7 8 9 11 12 8
2 4 9 5 9 12 5 4 5 4 4 3 2 2 3 6 4 6 10 9 11 13 14 16 13 12 11 9 11 10 7 2 2 7 10 13 12 9 6 7 7 11 12 2
3 4 6 9 6 5 6 5 5 5 4 4 4 2 5 3 0 4 2 7 12 15 18 17 13 11 10 8 8 6 8 3 4 7 10 11 10 8 10 13 13 16 6 6
3 5 5 11 5 5 2 4 4 4 1 3 4 1 3 0 9 10 5 7 10 17 16 14 12 12 10 9 7 7 6 4 5 8 8 8 8 10 11 12 12 15 13 14
3 2 4 5 6 8 7 10 5 5 3 3 4 0 6 7 6 2 3 6 8 10 11 11 14 15 11 9 8 8 5 4 3 7 4 6 5 8 6 11 12 9 10 12
10 5 5 4 5 2 6 12 13 7 6 4 3 3 7 6 3 4 10 10 3 5 3 9 8 13 12 12 11 5 4 5 7 5 5 6 7 10 7 7 10 10 8 9
6 5 8 5 4 10 7 11 14 12 5 6 5 7 6 9 5 11 13 14 14 9 1 1 3 8 13 15 11 6 3 8 8 11 5 7 8 9 8 8 10 8 10 5
5 2 3 5 10 14 9 11 12 11 8 7 5 7 12 17 15 22 22 21 21 16 10 9 8 6 11 12 12 8 7 8 10 10 8 7 7 5 7 7 7 7 10 5
4 4 3 1 2 3 9 8 11 10 11 3 6 3 10 19 17 16 22 22 19 18 24 17 15 14 12 12 13 9 12 10 11 15 9 7 8 8 6 8 9 9 8 5
5 3 3 2 3 4 6 12 17 15 7 5 6 8 11 7 8 17 25 23 23 22 24 21 14 11 15 15 14 13 12 11 11 14 12 7 11 10 7 7 8 10 8 5
5 4 3 3 2 3 6 8 7 2 9 12 9 13 16 15 16 19 22 20 22 22 22 21 20 19 16 18 21 20 16 12 12 14 15 11 9 8 9 8 10 10 8 6
8 6 5 3 4 2 2 12 24 9 4 14 15 13 13 19 5 7 21 21 23 24 27 25 24 23 21 21 24 21 22 16 14 12 16 14 13 13 11 12 12 10 9 7
4 4 4 2 3 3 7 15 7 6 4 12 14 11 11 6 5 16 20 19 19 23 28 24 26 23 24 20 18 15 15 19 18 13 15 15 14 14 12 12 12 11 9 7
2 2 2 3 3 3 11 4 5 2 7 12 8 8 9 13 15 13 12 16 18 21 23 26 28 29 27 22 18 16 21 18 15 16 17 18 16 16 17 16 14 14 14 15
3 1 4 2 4 6 12 14 10 6 4 6 8 6 10 13 13 10 12 20 20 20 21 22 24 29 31 29 20 17 16 15 16 18 18 18 17 18 19 17 18 17 16 17
3 3 4 3 1 9 8 7 5 3 6 6 10 6 8 10 8 12 18 22 24 24 23 24 25 28 30 30 28 23 17 15 20 21 19 16 16 17 17 21 20 20 19 18
1 3 4 3 5 4 4 2 3 4 4 10 12 12 14 12 14 15 17 21 19 23 22 24 22 25 26 25 26 24 21 20 15 13 19 14 15 16 17 18 22 21 22 20
3 3 3 3 8 4 2 7 1 9 12 12 15 16 17 16 14 17 19 19 17 25 19 23 25 25 24 22 19 23 25 22 15 10 16 23 16 13 13 14 20 18 21 20
Wind_Direction
18 78 86 175 164 264 185 213 221 75 11 59 110 167 208 284 279 230 207 128 184 196 185 189 190 184 248 336 351 340 330 341 354 358 2 10 12 358 335 347 355 349 360 4
15 160 172 97 144 150 198 184 326 87 110 85 113 99 31 48 54 100 106 165 179 196 187 186 190 204 262 326 338 329 328 342 360 360 357 348 351 357 353 344 343 352 2 3
169 37 152 144 137 131 224 170 146 143 95 130 93 56 31 79 100 127 161 168 184 180 187 193 193 217 244 287 312 320 324 341 359 2 351 345 341 349 340 345 348 348 1 359
86 269 106 62 64 79 330 250 253 130 117 172 198 142 29 110 122 151 171 182 201 190 195 203 210 208 247 265 282 332 339 351 353 354 360 354 353 343 340 331 333 334 343 350
250 13 355 346 176 205 238 222 93 109 109 103 7 82 212 183 190 202 227 229 224 195 211 212 210 220 234 239 292 333 345 345 355 357 360 4 3 345 326 323 331 325 331 340
181 339 53 261 250 183 260 42 101 95 98 56 304 116 308 5 294 201 225 241 218 200 204 201 216 221 224 266 316 316 346 355 5 1 5 4 355 354 342 338 344 345 345 337
343 343 303 2 3 24 49 52 2 2 36 87 325 42 250 304 328 285 235 231 215 220 184 188 187 203 245 287 288 323 351 351 357 10 357 351 343 344 345 355 346 343 351 354
65 8 4 337 16 238 47 140 148 218 145 151 351 14 283 279 336 2 233 215 197 177 199 188 202 224 267 265 298 318 331 338 345 355 345 342 337 331 342 352 345 347 346 344
52 49 36 66 47 41 327 19 50 102 57 87 310 345 303 285 271 140 145 166 186 201 179 202 216 231 268 298 295 296 315 308 346 324 345 347 340 333 314 342 352 349 346 340
310 128 5 67 34 15 57 286 23 15 113 116 145 320 281 330 301 197 215 217 200 195 198 214 216 243 266 269 286 295 325 325 299 342 341 353 354 8 7 353 346 349 338 68
33 83 345 49 22 17 353 16 50 108 96 136 152 287 236 125 79 110 220 220 206 209 210 212 222 254 254 269 277 295 315 273 288 346 342 3 8 42 44 35 32 22 49 36
13 99 83 106 43 20 353 346 109 110 119 92 124 276 23 138 113 112 167 211 204 221 222 222 248 243 244 239 264 271 301 225 319 336 329 359 20 43 35 23 29 38 31 25
353 63 102 299 1 349 35 32 41 89 77 12 101 112 14 95 84 52 9 345 244 202 212 227 226 229 237 239 254 295 281 220 273 323 328 352 357 10 6 14 14 20 20 25
76 27 120 138 184 217 50 51 53 88 78 76 109 119 358 347 139 71 60 63 85 201 286 266 257 250 250 251 257 287 313 234 272 294 309 334 331 340 336 343 355 4 4 19
96 85 109 121 101 69 82 70 62 81 144 90 79 79 341 327 50 58 51 31 40 55 26 339 289 256 254 247 254 268 291 267 262 300 296 308 314 319 328 344 324 338 349 3
23 149 70 52 80 75 61 80 61 51 51 71 86 68 358 9 32 49 41 29 17 352 318 305 310 290 284 260 264 274 289 266 257 274 292 305 328 308 313 320 331 334 348 328
93 130 87 266 15 62 32 357 90 76 39 18 43 318 17 17 2 39 29 12 352 340 330 301 310 307 307 281 275 285 324 299 267 272 277 285 280 305 309 314 308 305 324 320
114 86 88 154 40 56 124 98 99 81 48 32 40 13 24 347 348 18 24 21 10 354 347 332 305 305 294 304 296 291 303 303 279 273 271 255 282 304 302 294 343 335 306 305
95 114 83 109 94 125 5 4 323 351 50 17 24 14 20 17 34 18 12 12 7 1 353 347 343 320 302 305 295 293 287 303 277 276 275 260 257 271 296 304 310 325 328 291
48 57 107 101 113 239 326 326 328 138 69 23 24 44 46 42 39 321 8 11 12 11 359 351 344 331 331 298 291 269 281 287 282 278 269 267 268 257 271 286 291 311 317 319
359 17 85 108 112 95 314 328 7 63 291 12 50 77 44 50 20 9 6 4 3 4 9 1 359 357 351 329 324 275 270 269 287 287 271 268 270 252 266 275 288 285 295 311
86 72 23 59 82 186 350 28 82 168 44 23 43 33 28 16 358 353 360 357 354 354 360 358 359 357 357 350 324 306 277 288 274 281 275 267 268 260 257 263 272 276 286 293
33 145 143 120 175 143 86 109 105 51 19 352 338 351 350 340 337 344 354 348 354 353 355 354 351 352 359 0 345 312 300 293 271 256 270 276 265 256 255 261 268 264 269 282
55 109 109 87 138 145 140 129 99 29 5 6 355 352 349 343 341 343 349 355 352 351 354 356 351 355 357 0 3 1 334 277 268 271 264 271 271 268 266 259 267 264 262 266
287 72 128 94 164 141 204 182 117 136 3 338 333 327 330 336 348 340 335 353 357 357 352 355 355 356 356 359 4 5 4 358 331 258 290 273 274 279 272 267 260 263 261 262
12 164 133 194 146 166 353 127 230 344 320 313 322 314 318 316 317 333 347 342 336 346 350 354 357 355 353 351 357 5 10 360 348 336 318 290 284 273 278 278 278 258 255 259